Change the Weather History Date:

Thursday, January 24, 2013

  Actual Average (KRUG) Record (KRUG)
Temperature  
Mean Temperature -4 °F -  
Max Temperature 8 °F 17 °F 46 °F (1981)
Min Temperature -16 °F 0 °F -32 °F (1961)
Degree Days  
Heating Degree Days 69    
Moisture  
Dew Point -12 °F    
Average Humidity 76    
Maximum Humidity 92    
Minimum Humidity 64    
Precipitation  
Precipitation 0.02 in - - ()
Sea Level Pressure  
Sea Level Pressure 30.11 in    
Wind  
Wind Speed 16 mph (South)    
Max Wind Speed 28 mph    
Max Gust Speed 34 mph    
Visibility 8 miles    
Events Fog , Rain , Snow    
Averages and records for this station are not official NWS values.
T = Trace of Precipitation, MM = Missing Value Source: NWS Daily Summary

Daily Weather History Graph

Daily Weather History Graph

Search for Another Location

Airport or City:

Trip Planner

Search our weather history database for the weather conditions in past years. The results will help you decide how hot, cold, wet, or windy it might be!

Date:

Astronomy

Jan. 24, 2013 Rise Set
Actual Time 8:18 AM CST 5:23 PM CST
Civil Twilight 7:43 AM CST 5:58 PM CST
Nautical Twilight 7:04 AM CST 6:37 PM CST
Astronomical Twilight 6:27 AM CST 7:14 PM CST
Moon 3:24 PM CST (1/24) 6:20 AM CST (1/24)
Length of Visible Light 10h 15m
Length of Day
9h 05m
Waxing Gibbous, 94% of the Moon is Illuminated
Jan 24
Waxing Gibbous
Jan 26
Full
Feb 3
Last Quarter
Feb 10
New
Feb 17
First Quarter

Hourly Weather History & Observations

Time (CST) Temp. Windchill Dew Point Humidity Pressure Visibility Wind Dir Wind Speed Gust Speed Precip Events Conditions
12:15 AM -16.6 °F -35.7 °F -23.8 °F 70% 30.49 in 10.0 mi SSE 9.2 mph - N/A   Partly Cloudy
12:35 AM -16.6 °F -35.7 °F -23.8 °F 70% 30.48 in 10.0 mi SSE 9.2 mph - N/A   Mostly Cloudy
12:55 AM -16.6 °F -38.9 °F -25.6 °F 64% 30.47 in 10.0 mi SE 12.7 mph - N/A   Mostly Cloudy
1:15 AM -16.6 °F -37.9 °F -23.8 °F 70% 30.47 in 10.0 mi SSE 11.5 mph - N/A   Mostly Cloudy
1:35 AM -16.6 °F -38.9 °F -23.8 °F 70% 30.47 in 10.0 mi SSE 12.7 mph - N/A   Mostly Cloudy
1:55 AM -16.6 °F -39.8 °F -23.8 °F 70% 30.46 in 10.0 mi SSE 13.8 mph - N/A   Mostly Cloudy
2:15 AM -16.6 °F -41.4 °F -22.0 °F 76% 30.45 in 10.0 mi SSE 16.1 mph - N/A   Mostly Cloudy
2:35 AM -14.8 °F -37.5 °F -22.0 °F 70% 30.44 in 10.0 mi South 13.8 mph - N/A   Overcast
2:55 AM -14.8 °F -38.3 °F -22.0 °F 70% 30.44 in 10.0 mi South 15.0 mph - N/A   Overcast
3:15 AM -14.8 °F -38.3 °F -20.2 °F 77% 30.44 in 10.0 mi SSE 15.0 mph - N/A   Overcast
3:35 AM -14.8 °F -37.5 °F -20.2 °F 77% 30.42 in 10.0 mi South 13.8 mph - N/A   Overcast
3:55 AM -13.0 °F -36.0 °F -20.2 °F 70% 30.40 in 10.0 mi SSE 15.0 mph - N/A   Overcast
4:15 AM -14.8 °F -39.1 °F -20.2 °F 77% 30.38 in 10.0 mi SSE 16.1 mph - N/A   Overcast
4:35 AM -13.0 °F -38.2 °F -20.2 °F 70% 30.38 in 10.0 mi SSE 18.4 mph - N/A   Overcast
4:55 AM -13.0 °F -36.8 °F -20.2 °F 70% 30.38 in 10.0 mi SSE 16.1 mph - N/A   Overcast
5:15 AM -13.0 °F -35.2 °F -20.2 °F 70% 30.38 in 10.0 mi South 13.8 mph - N/A   Overcast
5:35 AM -13.0 °F -36.0 °F -20.2 °F 70% 30.37 in 10.0 mi South 15.0 mph - N/A   Overcast
5:55 AM -13.0 °F -36.8 °F -20.2 °F 70% 30.36 in 10.0 mi South 16.1 mph - N/A   Overcast
6:15 AM -13.0 °F -37.5 °F -20.2 °F 70% 30.33 in 10.0 mi South 17.3 mph 24.2 mph N/A   Overcast
6:35 AM -13.0 °F -37.5 °F -20.2 °F 70% 30.31 in 10.0 mi SSE 17.3 mph 26.5 mph N/A   Overcast
6:55 AM -13.0 °F -36.8 °F -20.2 °F 70% 30.31 in 10.0 mi SSE 16.1 mph - N/A   Overcast
7:15 AM -13.0 °F -36.8 °F -20.2 °F 70% 30.31 in 10.0 mi SSE 16.1 mph 20.7 mph N/A   Overcast
7:35 AM -13.0 °F -38.2 °F -20.2 °F 70% 30.28 in 10.0 mi SSE 18.4 mph - N/A   Overcast
7:55 AM -13.0 °F -36.0 °F -20.2 °F 70% 30.26 in 10.0 mi SSE 15.0 mph - N/A   Mostly Cloudy
8:15 AM -13.0 °F -36.8 °F -18.4 °F 77% 30.24 in 10.0 mi SSE 16.1 mph 24.2 mph N/A   Mostly Cloudy
8:35 AM -13.0 °F -38.2 °F -18.4 °F 77% 30.23 in 10.0 mi SSE 18.4 mph - N/A   Mostly Cloudy
8:55 AM -13.0 °F -38.8 °F -18.4 °F 77% 30.22 in 10.0 mi SSE 19.6 mph - N/A   Scattered Clouds
9:15 AM -11.2 °F -36.4 °F -18.4 °F 70% 30.22 in 10.0 mi SSE 19.6 mph 25.3 mph N/A   Mostly Cloudy
9:35 AM -11.2 °F -36.4 °F -18.4 °F 70% 30.20 in 10.0 mi SSE 19.6 mph - N/A   Partly Cloudy
9:55 AM -11.2 °F -35.8 °F -18.4 °F 70% 30.19 in 10.0 mi SSE 18.4 mph 25.3 mph N/A   Clear
10:15 AM -11.2 °F -36.4 °F -18.4 °F 70% 30.20 in 10.0 mi SSE 19.6 mph 25.3 mph N/A   Clear
10:35 AM -9.4 °F -31.4 °F -16.6 °F 71% 30.20 in 10.0 mi SSE 15.0 mph - N/A   Partly Cloudy
10:55 AM -9.4 °F -34.1 °F -16.6 °F 71% 30.18 in 10.0 mi SSE 19.6 mph 24.2 mph N/A   Mostly Cloudy
11:15 AM -9.4 °F -33.5 °F -16.6 °F 71% 30.18 in 10.0 mi SSE 18.4 mph 23.0 mph N/A   Overcast
11:35 AM -9.4 °F -34.1 °F -16.6 °F 71% 30.16 in 10.0 mi SSE 19.6 mph 26.5 mph N/A   Overcast
11:55 AM -9.4 °F -32.8 °F -16.6 °F 71% 30.14 in 10.0 mi SSE 17.3 mph 25.3 mph N/A   Scattered Clouds
12:15 PM -7.6 °F -30.5 °F -14.8 °F 71% 30.14 in 10.0 mi SSE 17.3 mph - N/A   Clear
12:35 PM -7.6 °F -33.4 °F -14.8 °F 71% 30.10 in 10.0 mi SSE 23.0 mph 27.6 mph N/A   Partly Cloudy
12:55 PM -7.6 °F -33.9 °F -13.0 °F 77% 30.05 in 10.0 mi South 24.2 mph 33.4 mph N/A Snow Light Snow
1:15 PM -7.6 °F -35.3 °F -13.0 °F 77% 30.02 in 10.0 mi SSE 27.6 mph 34.5 mph N/A Snow Light Snow
1:35 PM -5.8 °F -31.5 °F - N/A% 30.00 in 7.0 mi South 24.2 mph 34.5 mph N/A   Mostly Cloudy
1:55 PM -5.8 °F -32.0 °F -11.2 °F 77% 29.98 in 10.0 mi South 25.3 mph 33.4 mph N/A   Mostly Cloudy
2:15 PM -4.0 °F -29.6 °F -11.2 °F 71% 29.97 in 0.5 mi South 25.3 mph 33.4 mph N/A Snow Snow
2:35 PM -4.0 °F -27.6 °F -9.4 °F 78% 29.96 in 0.2 mi South 20.7 mph 34.5 mph 0.01 in Snow Heavy Snow
2:55 PM -4.0 °F -27.6 °F -9.4 °F 78% 29.95 in 0.5 mi South 20.7 mph 31.1 mph 0.02 in Snow Snow
3:15 PM -4.0 °F -29.1 °F -9.4 °F 78% 29.94 in 0.8 mi South 24.2 mph 31.1 mph N/A   Haze
3:35 PM -2.2 °F -25.2 °F -7.6 °F 78% 29.93 in 0.5 mi South 20.7 mph 28.8 mph N/A   Haze
3:55 PM -2.2 °F -24.7 °F -7.6 °F 78% 29.93 in 0.5 mi South 19.6 mph 33.4 mph N/A Fog Light Freezing Fog
4:15 PM -2.2 °F -24.1 °F -7.6 °F 78% 29.93 in 1.0 mi South 18.4 mph 25.3 mph N/A   Haze
4:35 PM -2.2 °F -26.2 °F -5.8 °F 85% 29.92 in 1.5 mi South 23.0 mph 27.6 mph N/A   Overcast
4:55 PM -0.4 °F -23.3 °F -5.8 °F 78% 29.90 in 1.0 mi South 21.9 mph 27.6 mph N/A   Haze
5:35 PM -0.4 °F -22.3 °F -4.0 °F 85% 29.89 in 1.2 mi South 19.6 mph 25.3 mph N/A   Mostly Cloudy
5:55 PM -0.4 °F -22.3 °F -4.0 °F 85% 29.88 in 2.0 mi SSW 19.6 mph 24.2 mph N/A   Mostly Cloudy
6:15 PM -0.4 °F -22.8 °F -2.2 °F 92% 29.87 in 3.0 mi SSW 20.7 mph 24.2 mph N/A   Mostly Cloudy
6:35 PM 1.4 °F -19.9 °F -2.2 °F 85% 29.86 in 5.0 mi SSW 19.6 mph 26.5 mph N/A   Overcast
6:55 PM 1.4 °F -21.0 °F -0.4 °F 92% 29.85 in 4.0 mi SSW 21.9 mph - N/A   Mostly Cloudy
7:15 PM 1.4 °F -17.6 °F -0.4 °F 92% 29.85 in 7.0 mi SSW 15.0 mph - N/A   Mostly Cloudy
7:35 PM 3.2 °F -17.1 °F -0.4 °F 85% 29.85 in 5.0 mi SSW 18.4 mph - N/A   Overcast
7:55 PM 5.0 °F -14.2 °F 1.4 °F 85% 29.83 in 5.0 mi SSW 17.3 mph - N/A   Mostly Cloudy
8:15 PM 5.0 °F -12.3 °F 1.4 °F 85% 29.83 in 7.0 mi SSW 13.8 mph - N/A   Overcast
8:35 PM 5.0 °F -13.6 °F 1.4 °F 85% 29.82 in 9.0 mi SSW 16.1 mph - N/A   Overcast
8:55 PM 5.0 °F -14.2 °F 3.2 °F 92% 29.80 in 10.0 mi SSW 17.3 mph - N/A   Mostly Cloudy
9:15 PM 5.0 °F -13.6 °F 1.4 °F 85% 29.79 in 10.0 mi SW 16.1 mph 21.9 mph N/A Snow Light Snow
9:35 PM 5.0 °F -10.0 °F 1.4 °F 85% 29.79 in 10.0 mi SW 10.4 mph - N/A Snow Light Snow
9:55 PM 5.0 °F -14.7 °F 1.4 °F 85% 29.79 in 10.0 mi WSW 18.4 mph - N/A   Mostly Cloudy
10:15 PM 5.0 °F -11.6 °F 1.4 °F 85% 29.79 in 10.0 mi WSW 12.7 mph - N/A   Scattered Clouds
10:35 PM 6.8 °F -10.0 °F 1.4 °F 79% 29.79 in 10.0 mi West 13.8 mph - N/A Snow Light Snow
10:55 PM 8.6 °F -10.0 °F 3.2 °F 79% 29.79 in 9.0 mi WNW 18.4 mph 24.2 mph N/A Snow Light Snow
11:15 PM 8.6 °F -11.4 °F 5.0 °F 85% 29.80 in 6.0 mi WNW 21.9 mph 26.5 mph N/A Rain Light Freezing Rain
11:35 PM 6.8 °F -13.8 °F 3.2 °F 85% 29.81 in 5.0 mi WNW 21.9 mph 25.3 mph N/A Rain Light Freezing Rain
11:55 PM 6.8 °F -11.8 °F 1.4 °F 79% 29.82 in 5.0 mi WNW 17.3 mph 27.6 mph N/A Snow Light Snow